[[{"header":{"parameterUnit":"m.s-1","parameterCategory":1,"la1":30.2991,"la2":30.254,"lo1":-89.0895,"lo2":-89.0444,"dy":0.0017,"dx":0.0017,"nx":28,"ny":28,"refTime":"2023-09-14T09:00:00:Z","depth":0,"parameterNumber":2,"parameterNumberName":"U-component_of_WINDS"},"data":[0,0,0,0,0,0,0,0,0,0,0,0,0,0,0,0,0,0,0,0,0,0,0,0,0,0,0,0,0,0,0,0,0,0,0,0,0,0,0,0,0,0,0,0,0,0,0,0,0,0,0,0,0,0,0,0,0,0,0.9965,0.9965,0,1.0009,1.001,1.001,1.0052,1.0053,1.0053,1.0054,1.0096,1.0097,1.0098,0,0,0,0,0,0,0,0,0,0,0,0,0,0.9915,0.9916,0.9965,0.9965,0.9966,1.0009,1.001,1.001,1.0052,1.0053,1.0053,1.0054,1.0096,1.0097,1.0098,0,0,0,0,0,0,0,0,0,0,0,0,0,0.9945,0.9916,0.9965,0.9992,0.9995,1.0009,1.001,1.001,1.0052,1.0053,1.0053,1.0054,1.0096,1.0097,1.0098,1.0088,0,0,1.0101,1.0101,0,0,0,0,0,0,0,0,0.9944,0.9947,0.9987,0.999,0.9993,1.0026,1.0008,1.0036,1.0052,1.003,1.0054,1.0055,1.0072,1.0075,1.0082,1.009,1.0092,1.0101,1.0101,1.0102,1.0102,0,0,0,0,0,0,0,0.9941,0.9946,0.9982,0.9988,0.9992,1.0001,1.0007,1.0013,1.0046,1.0032,1.0035,1.004,1.0074,1.0081,1.0083,1.0092,1.0101,1.0102,1.0102,1.0103,1.0095,1.0094,0,0,0,0,0,0,0.9935,0.9943,0.9981,0.9984,0.997,1.0002,1.0008,1.0015,1.0046,1.0052,1.0039,1.0042,1.0078,1.0082,1.0085,1.0075,1.0102,1.0103,1.0103,1.0096,1.0095,1.0094,0,0,0,0,0,0,0.9934,0.9938,0.9979,0.9964,0.997,1.0002,1.0009,1.0015,1.0022,1.0052,1.0057,1.004,1.0079,1.0083,1.0087,1.0077,1.0103,1.0104,1.0097,1.0095,1.0094,1.0055,0,0,0,0,0,0,0.9933,0.9938,0.9934,0.9964,0.9971,0.9981,1.0009,1.0015,1.0024,1.0027,1.0054,1.0059,1.008,1.0085,1.0088,1.0079,1.0105,1.0098,1.0096,1.0095,1.0057,1.0053,1.0049,0,0,0,0,0,0.9931,0.9921,0.9934,0.9938,0.9968,0.998,0.9984,1.0009,1.0023,1.0019,1.0039,1.0058,1.0078,1.0085,1.0089,1.0079,1.0098,1.0097,1.0095,1.0059,1.0054,1.0049,0,0,0,0,0,0,0.9888,0.9925,0.994,0.994,0.9957,0.9987,0.9984,1.0002,1.0015,1.0018,1.0048,1.0054,1.0054,1.0068,1.0075,1.0072,1.0091,1.009,1.0063,1.0058,1.0053,1.005,1.0106,0,0,0,0,0,0.9879,0.9886,0.9918,0.9915,0.9923,0.9952,0.9958,0.9976,0.9995,1.0002,1.0021,1.0038,1.0048,1.0054,1.0065,1.006,1.0066,1.0056,1.0051,1.0048,1.0046,1.0045,1.004,1.0088,1.0088,1.0088,0,0,0.9859,0.988,0.9883,0.9907,0.9922,0.9929,0.9957,0.9963,0.9968,1.0002,1.0007,1.0022,1.0043,1.0043,1.0043,1.0054,1.0034,1.0045,1.0042,1.0042,1.0042,1.0038,1.0034,1.0087,1.0087,1.0087,0,0,0.9826,0.9844,0.9843,0.9858,0.9881,0.9901,0.9901,0.9929,0.9941,0.9947,0.9972,0.9979,0.9996,1.0009,1.0018,0.9993,1.0011,0.9996,0.9973,0.9971,0.9967,0.9964,0.9955,0.9951,0.9994,0.9994,0.9994,0,0.9799,0.9811,0.984,0.9845,0.9854,0.9887,0.9886,0.9899,0.9924,0.993,0.9942,0.9964,0.998,0.9983,0.9977,0.9984,0.9984,0.9992,0.9966,0.9963,0.996,0.9952,0.9948,0.9992,0.9992,0.9992,0.9993,0,0.9775,0.9783,0.978,0.9805,0.9814,0.9816,0.9845,0.9851,0.9869,0.9887,0.9893,0.9914,0.993,0.9932,0.9949,0.9938,0.9944,0.996,0.998,0.9953,0.9945,0.9942,0.9989,0.999,0.999,0.9991,0,0,0.9715,0.9757,0.9755,0.9767,0.9796,0.9803,0.9806,0.9823,0.9828,0.9844,0.9848,0.9862,0.9878,0.9888,0.9907,0.9906,0.9885,0.9923,0.9924,0.9914,0.9874,0.986,0.9856,0.9898,0.9897,0.9897,0.9872,0,0.9687,0.9696,0.9723,0.9723,0.9731,0.9763,0.9766,0.9784,0.9802,0.9811,0.983,0.984,0.986,0.9867,0.9867,0.9887,0.9877,0.9889,0.99,0.99,0.9893,0.9852,0.9838,0.9813,0.9869,0.9868,0.9868,0,0.9654,0.967,0.9672,0.9702,0.9706,0.9708,0.9726,0.9734,0.9756,0.9769,0.9781,0.9803,0.9808,0.9828,0.9835,0.9843,0.985,0.9861,0.986,0.9861,0.9882,0.9851,0.9806,0.9802,0.9864,0.9864,0.9864,0,0.961,0.9631,0.9635,0.9645,0.9679,0.968,0.9695,0.9717,0.9726,0.9741,0.9747,0.9763,0.9771,0.9783,0.9808,0.982,0.9813,0.9834,0.9823,0.9823,0.9819,0.9819,0.9773,0.9825,0.9825,0.9825,0.9825,0,0.9574,0.9574,0.9616,0.9618,0.9619,0.965,0.9649,0.9667,0.9687,0.9693,0.9722,0.9726,0.976,0.9769,0.9789,0.9792,0.9796,0.9806,0.9812,0.9803,0.9802,0.9807,0.9809,0.9824,0.9824,0.9824,0.9825,0,0.9524,0.9552,0.9558,0.9591,0.96,0.9598,0.9627,0.963,0.965,0.9657,0.9661,0.9692,0.9704,0.9732,0.975,0.9764,0.9762,0.9772,0.9755,0.9758,0.9745,0.9745,0.97,0.9696,0.9751,0.975,0.975,0,0.9499,0.9499,0.9533,0.954,0.9553,0.9563,0.9573,0.9604,0.9612,0.9638,0.9638,0.9652,0.9665,0.9683,0.9707,0.9722,0.9732,0.9715,0.9734,0.9726,0.9731,0.973,0.973,0.971,0.971,0.9709,0.9708,0,0.9451,0.9466,0.9478,0.9496,0.9507,0.9522,0.9539,0.9543,0.9578,0.9587,0.96,0.961,0.963,0.9644,0.9663,0.9678,0.9698,0.9703,0.9701,0.9691,0.9681,0.9686,0.9742,0.9703,0.9704,0.9704,0.9704,0.9705,0.9412,0.9414,0.9439,0.9452,0.9469,0.9484,0.9489,0.9511,0.9523,0.9542,0.956,0.9571,0.9594,0.9621,0.9635,0.9644,0.9654,0.9652,0.9651,0.9649,0.9646,0.9681,0.9647,0.9648,0.9648,0.9648,0.9648,0,0.9365,0.9383,0.9396,0.9419,0.943,0.9451,0.9471,0.9478,0.9488,0.9507,0.952,0.9536,0.955,0.9576,0.9592,0.9595,0.9605,0.9598,0.9597,0.96,0.9635,0.9635,0.9589,0.9589,0.9589,0.9589,0.9589,0.9589,0.9342,0.9347,0.9365,0.9378,0.9396,0.9408,0.9418,0.9432,0.9448,0.9464,0.9476,0.9494,0.9516,0.9535,0.9548,0.9556,0.956,0.955,0.956,0.9592,0.9597,0.9603,0.9603,0.9551,0.9551,0.9524,0.9524,0.9523]},{"header":{"parameterUnit":"m.s-1","parameterCategory":1,"la1":30.2991,"la2":30.254,"lo1":-89.0895,"lo2":-89.0444,"dy":0.0017,"dx":0.0017,"nx":28,"ny":28,"refTime":"2023-09-14T09:00:00:Z","depth":0,"parameterNumber":3,"parameterNumberName":"V-component_of_WINDS"},"data":[0,0,0,0,0,0,0,0,0,0,0,0,0,0,0,0,0,0,0,0,0,0,0,0,0,0,0,0,0,0,0,0,0,0,0,0,0,0,0,0,0,0,0,0,0,0,0,0,0,0,0,0,0,0,0,0,0,0,-1.4305,-1.4306,0,-1.4424,-1.4425,-1.4427,-1.4468,-1.4468,-1.4467,-1.4467,-1.4588,-1.4592,-1.4596,0,0,0,0,0,0,0,0,0,0,0,0,0,-1.4113,-1.4116,-1.4305,-1.4306,-1.4308,-1.4424,-1.4426,-1.4427,-1.4468,-1.4468,-1.4467,-1.4467,-1.4587,-1.4592,-1.4596,0,0,0,0,0,0,0,0,0,0,0,0,0,-1.421,-1.4117,-1.4305,-1.4342,-1.4347,-1.4424,-1.4426,-1.4428,-1.4469,-1.4468,-1.4467,-1.4467,-1.4586,-1.4591,-1.4597,-1.4644,0,0,-1.4613,-1.4616,0,0,0,0,0,0,0,0,-1.4205,-1.4218,-1.4335,-1.434,-1.4345,-1.4431,-1.4402,-1.45,-1.4469,-1.4422,-1.4467,-1.4466,-1.4536,-1.4546,-1.457,-1.465,-1.4655,-1.4614,-1.4617,-1.4619,-1.4621,0,0,0,0,0,0,0,-1.4198,-1.4213,-1.4352,-1.4337,-1.4343,-1.4353,-1.4367,-1.4421,-1.4482,-1.4426,-1.443,-1.4443,-1.4539,-1.4564,-1.4573,-1.4657,-1.4614,-1.4618,-1.4622,-1.4624,-1.4782,-1.4783,0,0,0,0,0,0,-1.4185,-1.4207,-1.4348,-1.4356,-1.4272,-1.4357,-1.4372,-1.4404,-1.4481,-1.4492,-1.4444,-1.4445,-1.4555,-1.4566,-1.4577,-1.4638,-1.4619,-1.4625,-1.4628,-1.4781,-1.4782,-1.4783,0,0,0,0,0,0,-1.4181,-1.4197,-1.4343,-1.4282,-1.4302,-1.4361,-1.4397,-1.4407,-1.4432,-1.4494,-1.4505,-1.4458,-1.4555,-1.457,-1.4627,-1.4643,-1.4627,-1.4632,-1.478,-1.4781,-1.4783,-1.4759,0,0,0,0,0,0,-1.4175,-1.4195,-1.4214,-1.4282,-1.4305,-1.4391,-1.4398,-1.4409,-1.4441,-1.4444,-1.4511,-1.4522,-1.4556,-1.4619,-1.4633,-1.465,-1.4636,-1.4779,-1.4781,-1.4782,-1.4759,-1.476,-1.4761,0,0,0,0,0,-1.4168,-1.4202,-1.4215,-1.4232,-1.4329,-1.4392,-1.4405,-1.4444,-1.4443,-1.4462,-1.4502,-1.4519,-1.4639,-1.4624,-1.464,-1.466,-1.4778,-1.478,-1.4782,-1.4759,-1.476,-1.4761,0,0,0,0,0,0,-1.4134,-1.4212,-1.4226,-1.4284,-1.4331,-1.4399,-1.4424,-1.4443,-1.4491,-1.4492,-1.4538,-1.4553,-1.4607,-1.4639,-1.4621,-1.471,-1.471,-1.4715,-1.4686,-1.4688,-1.4689,-1.4679,-1.4641,0,0,0,0,0,-1.4133,-1.4178,-1.4244,-1.4288,-1.4311,-1.4363,-1.4392,-1.4418,-1.4469,-1.4489,-1.4533,-1.4581,-1.463,-1.4661,-1.4709,-1.4764,-1.478,-1.4786,-1.4786,-1.4787,-1.479,-1.4822,-1.4826,-1.479,-1.479,-1.479,0,0,-1.4132,-1.418,-1.4205,-1.4283,-1.4322,-1.4367,-1.438,-1.4427,-1.4461,-1.4496,-1.4553,-1.4587,-1.4644,-1.4701,-1.4728,-1.473,-1.4804,-1.4789,-1.4789,-1.4793,-1.4825,-1.4828,-1.4831,-1.4791,-1.4791,-1.4791,0,0,-1.4153,-1.4194,-1.4235,-1.4275,-1.4335,-1.437,-1.438,-1.4445,-1.4469,-1.4527,-1.4555,-1.4596,-1.4678,-1.4718,-1.4749,-1.4785,-1.4803,-1.48,-1.4803,-1.4834,-1.4837,-1.4839,-1.4852,-1.4856,-1.4804,-1.4804,-1.4804,0,-1.4143,-1.4213,-1.4254,-1.43,-1.4333,-1.4368,-1.441,-1.4447,-1.4519,-1.4541,-1.4542,-1.4647,-1.4687,-1.4754,-1.4763,-1.4787,-1.48,-1.4792,-1.4833,-1.4836,-1.4839,-1.4852,-1.4857,-1.4803,-1.4803,-1.4803,-1.4803,0,-1.4198,-1.4246,-1.4272,-1.4342,-1.4378,-1.4422,-1.447,-1.4502,-1.4525,-1.456,-1.4619,-1.4669,-1.4728,-1.4746,-1.4769,-1.4816,-1.4815,-1.4824,-1.4824,-1.4841,-1.4854,-1.4859,-1.4802,-1.4802,-1.4802,-1.4802,0,0,-1.4199,-1.4292,-1.4301,-1.4333,-1.4402,-1.444,-1.4486,-1.4544,-1.457,-1.4619,-1.4658,-1.4728,-1.4737,-1.4772,-1.48,-1.4827,-1.4853,-1.4833,-1.4835,-1.4834,-1.4908,-1.49,-1.4905,-1.4865,-1.4867,-1.4867,-1.4903,0,-1.4229,-1.4312,-1.4351,-1.4417,-1.4461,-1.4495,-1.4535,-1.4582,-1.4616,-1.4659,-1.4697,-1.4745,-1.4753,-1.4775,-1.4803,-1.4843,-1.4868,-1.4842,-1.4902,-1.4904,-1.4886,-1.4912,-1.4904,-1.4935,-1.4908,-1.4909,-1.491,0,-1.4274,-1.4323,-1.4393,-1.4458,-1.4478,-1.4513,-1.457,-1.461,-1.4664,-1.4687,-1.4727,-1.4754,-1.4803,-1.4801,-1.487,-1.4851,-1.4879,-1.4902,-1.4905,-1.4911,-1.4907,-1.4918,-1.4945,-1.495,-1.4918,-1.4917,-1.4917,0,-1.4267,-1.4351,-1.4404,-1.4431,-1.4507,-1.4531,-1.4564,-1.4617,-1.465,-1.47,-1.4721,-1.4776,-1.4806,-1.4848,-1.4889,-1.4883,-1.4954,-1.4955,-1.4974,-1.4973,-1.4986,-1.4985,-1.5017,-1.5005,-1.5005,-1.5005,-1.5005,0,-1.4295,-1.4336,-1.4402,-1.4435,-1.4482,-1.4527,-1.4573,-1.4609,-1.4656,-1.4696,-1.4729,-1.4766,-1.4819,-1.4863,-1.4895,-1.4947,-1.4961,-1.498,-1.4988,-1.4977,-1.4974,-1.4995,-1.4994,-1.5006,-1.5006,-1.5006,-1.5005,0,-1.4295,-1.4341,-1.4401,-1.4469,-1.4487,-1.4519,-1.4577,-1.461,-1.4646,-1.4696,-1.4711,-1.4767,-1.482,-1.4866,-1.4936,-1.4958,-1.5012,-1.5022,-1.4993,-1.4997,-1.5014,-1.5011,-1.506,-1.5069,-1.5051,-1.5051,-1.5051,0,-1.431,-1.4342,-1.4414,-1.4443,-1.4476,-1.4523,-1.4556,-1.4602,-1.4636,-1.47,-1.4726,-1.4781,-1.4828,-1.4911,-1.4959,-1.5013,-1.5024,-1.5037,-1.5032,-1.502,-1.5024,-1.5021,-1.5024,-1.5037,-1.5037,-1.5037,-1.5037,0,-1.433,-1.4352,-1.4399,-1.4454,-1.4493,-1.4539,-1.4586,-1.4608,-1.4663,-1.4699,-1.4754,-1.479,-1.4862,-1.4917,-1.4976,-1.501,-1.5033,-1.5039,-1.5046,-1.5034,-1.5016,-1.5026,-1.4993,-1.5037,-1.5037,-1.5037,-1.5037,-1.5037,-1.4338,-1.4369,-1.4424,-1.4476,-1.4516,-1.4559,-1.4593,-1.4634,-1.4681,-1.4743,-1.4767,-1.4823,-1.4877,-1.4959,-1.4994,-1.5038,-1.5041,-1.5052,-1.5054,-1.5056,-1.5054,-1.5009,-1.5049,-1.5049,-1.5049,-1.5049,-1.5049,0,-1.436,-1.4397,-1.4445,-1.4509,-1.455,-1.4568,-1.4621,-1.4654,-1.4703,-1.4751,-1.4797,-1.486,-1.4914,-1.4966,-1.5022,-1.5048,-1.506,-1.5061,-1.5059,-1.5067,-1.5048,-1.5036,-1.5051,-1.5051,-1.5051,-1.5051,-1.5051,-1.5051,-1.4376,-1.4429,-1.4457,-1.4531,-1.4568,-1.4623,-1.4652,-1.4692,-1.4731,-1.48,-1.4845,-1.4879,-1.4929,-1.4989,-1.5039,-1.5053,-1.5072,-1.5071,-1.5087,-1.5069,-1.5068,-1.5067,-1.5056,-1.5075,-1.5075,-1.5103,-1.5103,-1.5103]}]]